Weather History for Moab, UT

Change the Weather History Date:

Thursday, May 8, 2014

  Actual Average Record
Temperature  
Mean Temperature 54 °F 60 °F  
Max Temperature 67 °F 75 °F 98 °F (1989)
Min Temperature 41 °F 45 °F 32 °F (1938)
Degree Days  
Heating Degree Days 11 6  
Month to date heating degree days 46 56  
Since 1 July heating degree days 5708 5481  
Cooling Degree Days 0 1  
Month to date cooling degree days 13 6  
Year to date cooling degree days 16 9  
Growing Degree Days 4 (Base 50)    
Moisture  
Dew Point 26 °F    
Average Humidity 43    
Maximum Humidity 70    
Minimum Humidity 16    
Precipitation  
Precipitation 0.00 in 0.02 in 0.65 in (1979)
Month to date precipitation T 0.17  
Year to date precipitation 0.94 2.79  
Sea Level Pressure  
Sea Level Pressure 29.85 in    
Wind  
Wind Speed 8 mph (WNW)    
Max Wind Speed 21 mph    
Max Gust Speed 26 mph    
Visibility 10 miles    
Events      
T = Trace of Precipitation, MM = Missing Value Source: NWS Daily Summary

Daily Weather History Graph

Daily Weather History Graph

Search for Another Location

Airport:

Trip Planner

Search our weather history database for the weather conditions in past years. The results will help you decide how hot, cold, wet, or windy it might be!

Date:

Astronomy

May. 08, 2014 Rise Set
Actual Time 6:13 AM MDT 8:18 PM MDT
Civil Twilight 5:44 AM MDT 8:47 PM MDT
Nautical Twilight 5:08 AM MDT 9:23 PM MDT
Astronomical Twilight 4:29 AM MDT 10:02 PM MDT
Moon 2:25 PM MDT (5/8) 2:42 AM MDT (5/8)
Length of Visible Light 15h 03m
Length of Day
14h 04m
Waxing Gibbous, 65% of the Moon is Illuminated
May 8
Waxing Gibbous
May 14
Full
May 21
Last Quarter
May 28
New
Jun 5
First Quarter

Hourly Weather History & Observations

Time (MDT) Temp. Windchill Dew Point Humidity Pressure Visibility Wind Dir Wind Speed Gust Speed Precip Events Conditions
12:53 AM 44.6 °F 39.7 °F 32.0 °F 61% 29.82 in 10.0 mi West 9.2 mph - N/A   Clear
1:53 AM 42.1 °F 38.4 °F 32.0 °F 67% 29.77 in 10.0 mi WNW 5.8 mph - N/A   Clear
2:53 AM 43.0 °F 38.8 °F 32.0 °F 65% 29.78 in 10.0 mi West 6.9 mph - N/A   Mostly Cloudy
3:53 AM 44.1 °F 40.8 °F 33.1 °F 65% 29.78 in 10.0 mi WSW 5.8 mph - N/A   Overcast
4:53 AM 45.0 °F 40.6 °F 34.0 °F 65% 29.80 in 10.0 mi West 8.1 mph - N/A   Overcast
5:53 AM 43.0 °F 41.3 °F 33.1 °F 68% 29.83 in 10.0 mi North 3.5 mph - N/A   Overcast
6:53 AM 42.1 °F 37.7 °F 32.0 °F 67% 29.85 in 10.0 mi NNW 6.9 mph - N/A   Mostly Cloudy
7:53 AM 44.1 °F 39.0 °F 33.1 °F 65% 29.87 in 10.0 mi North 9.2 mph - N/A   Overcast
8:53 AM 48.2 °F - 33.8 °F 58% 29.93 in 10.0 mi NNW 3.5 mph - N/A   Overcast
9:53 AM 53.1 °F - 28.9 °F 40% 29.87 in 10.0 mi West 8.1 mph - N/A   Overcast
10:53 AM 55.0 °F - 28.9 °F 37% 29.88 in 10.0 mi NW 8.1 mph - N/A   Mostly Cloudy
11:53 AM 57.2 °F - 26.6 °F 31% 29.94 in 10.0 mi WNW 10.4 mph 23.0 mph N/A   Clear
12:53 PM 61.0 °F - 26.1 °F 26% 29.86 in 10.0 mi North - - N/A   Clear
1:53 PM 63.0 °F - 23.0 °F 22% 29.85 in 10.0 mi WSW 15.0 mph 20.7 mph N/A   Partly Cloudy
2:53 PM 64.4 °F - 23.0 °F 21% 29.91 in 10.0 mi West 11.5 mph 25.3 mph N/A   Scattered Clouds
3:44 PM 66.0 °F - 21.9 °F 19% 29.89 in 10.0 mi WSW 15.0 mph 24.2 mph N/A   Scattered Clouds
3:53 PM 64.0 °F - 21.9 °F 20% 29.82 in 10.0 mi West 13.8 mph - N/A   Partly Cloudy
4:53 PM 63.0 °F - 19.9 °F 19% 29.82 in 10.0 mi West 8.1 mph 23.0 mph N/A   Scattered Clouds
5:53 PM 66.0 °F - 19.9 °F 17% 29.81 in 10.0 mi West 17.3 mph 24.2 mph N/A   Partly Cloudy
6:53 PM 64.0 °F - 19.0 °F 18% 29.82 in 10.0 mi West 12.7 mph - N/A   Mostly Cloudy
7:53 PM 62.1 °F - 19.9 °F 20% 29.83 in 10.0 mi WNW 10.4 mph - N/A   Clear
8:53 PM 57.0 °F - 17.1 °F 21% 29.86 in 10.0 mi West 10.4 mph - N/A   Clear
9:53 PM 55.9 °F - 19.0 °F 24% 29.86 in 10.0 mi West 9.2 mph - N/A   Clear
10:53 PM 55.0 °F - 19.9 °F 25% 29.88 in 10.0 mi West 9.2 mph - N/A   Clear
11:53 PM 48.9 °F - 19.0 °F 31% 29.88 in 10.0 mi Calm Calm - N/A   Clear